Regional Weather Roundup
Issued by NWS

Home | Current Version | Previous Version | Graphics & Text | Print | Product List | Glossary On
Versions: 1 2 3 4 5 6 7 8 9 10 11 12 13 14 15 16 17 18 19 20 21 22 23 24 25 26 27 28
000
ASUS45 KCYS 290210
RWRWY

WYOMING REGIONAL WEATHER ROUNDUP
NATIONAL WEATHER SERVICE CHEYENNE WY
800 PM MDT SUN AUG 28 2016

NOTE:  "FAIR" INDICATES FEW OR NO CLOUDS BELOW 12,000 FEET
WITH NO SIGNIFICANT WEATHER AND/OR OBSTRUCTIONS TO VISIBILITY.

WYZ001-290300-
YELLOWSTONE NATIONAL PARK

CITY           SKY/WX    TMP DP  RH WIND       PRES   REMARKS
LK YELLOWSTONE   N/A     62  34  35 CALM      30.40R
W YELLOWSTONE  NOT AVBL

$$
WYZ002>013-054>058-071-098>099-290300-
NORTHERN WYOMING

CITY           SKY/WX    TMP DP  RH WIND       PRES   REMARKS
JACKSON        NOT AVBL
CODY           FAIR      73  37  27 NW5       30.16R
GREYBULL       FAIR      80  32  17 N5        30.04R
WORLAND        FAIR      74  37  26 NE5       30.06R
SHERIDAN       FAIR      71  43  36 NW6       30.09R
BUFFALO        FAIR      76  33  21 NW12      30.17R
GILLETTE       FAIR      72  32  23 NW6       30.09R
HULETT         FAIR      72  43  35 E9        30.11R
NEWCASTLE      FAIR      79  34  19 E8        30.07R

$$
WYZ014>020-022>026-101>103-290300-
CENTRAL WYOMING

CITY           SKY/WX    TMP DP  RH WIND       PRES   REMARKS
BIG PINEY      FAIR      69  30  23 N9        30.31R
PINEDALE       FAIR      68  30  24 NW8       30.32R
DUBOIS         FAIR      66  25  20 W9        30.32R
LANDER         FAIR      73  35  25 W12       30.15R
RIVERTON       FAIR      77  27  15 NE6       30.16R
CASPER         FAIR      73  36  25 CALM      30.15R
DOUGLAS        FAIR      70  31  23 NE5       30.13R

$$
WYZ021-027>030-104>119-290300-
SOUTHERN WYOMING

CITY           SKY/WX    TMP DP  RH WIND       PRES   REMARKS
EVANSTON       FAIR      70  22  16 NW9       30.33R
FORT BRIDGER   FAIR      73  23  15 NW9       30.34R
ROCK SPRINGS   FAIR      71  22  15 W6        30.26R
DIXON          FAIR      72  28  19 CALM      30.28S
RAWLINS        FAIR      67  20  16 CALM      30.27R
SARATOGA       FAIR      64  23  20 SW5       30.29S
LARAMIE        FAIR      63  33  32 S10       30.30R
CHEYENNE       FAIR      68  45  43 SE13      30.25R
TORRINGTON     FAIR      74  47  38 SE7       30.08R
PINE BLUFFS    FAIR      70  37  30 SE10G18   30.19R

$$




USA.gov is the U.S. government's official web portal to all federal, state and local government web resources and services.